| time (UTC) | temp F | wind direction | speed MPH | gust MPH | rain 1hr in | rain 24hr in | rain mn in | humidity % | barometer mb |
| 20260904074039 | 55 | 267 | 13.0 | 25.0 | 0.00 | 0.04 | 0.04 | 80 | 1007.5 |
| 20260904073540 | 55 | 263 | 14.0 | 25.0 | 0.00 | 0.04 | 0.04 | 82 | 1007.6 |
| 20260904073100 | 55 | 236 | 15.0 | 28.0 | 0.00 | 0.04 | 0.04 | 82 | 1007.5 |
| 20260904072539 | 55 | 252 | 16.0 | 28.0 | 0.00 | 0.04 | 0.04 | 82 | 1007.6 |
| 20260904072038 | 55 | 267 | 15.0 | 26.0 | 0.00 | 0.04 | 0.04 | 83 | 1007.6 |
| 20260904071625 | 55 | 243 | 15.0 | 26.0 | 0.00 | 0.04 | 0.04 | 82 | 1007.5 |
| 20260904071039 | 55 | 249 | 13.0 | 23.0 | 0.00 | 0.04 | 0.04 | 81 | 1007.4 |
| 20260904070539 | 55 | 254 | 13.0 | 28.0 | 0.00 | 0.04 | 0.04 | 80 | 1007.4 |
| 20260904070113 | 55 | 281 | 14.0 | 29.0 | 0.00 | 0.04 | 0.04 | 80 | 1007.4 |
| 20260904065539 | 56 | 241 | 16.0 | 29.0 | 0.00 | 0.04 | 0.04 | 79 | 1007.2 |
| 20260904065039 | 56 | 253 | 13.0 | 27.0 | 0.00 | 0.04 | 0.04 | 79 | 1007.0 |
| 20260904064609 | 56 | 252 | 15.0 | 27.0 | 0.00 | 0.04 | 0.04 | 79 | 1006.8 |
| 20260904064039 | 56 | 259 | 15.0 | 26.0 | 0.00 | 0.04 | 0.04 | 79 | 1006.6 |
| 20260904063539 | 56 | 298 | 15.0 | 25.0 | 0.00 | 0.04 | 0.04 | 79 | 1006.5 |
| 20260904063100 | 55 | 244 | 12.0 | 32.0 | 0.00 | 0.04 | 0.04 | 80 | 1006.6 |
| 20260904062541 | 55 | 247 | 14.0 | 32.0 | 0.00 | 0.04 | 0.04 | 79 | 1006.6 |
| 20260904062038 | 55 | 249 | 11.0 | 26.0 | 0.00 | 0.04 | 0.04 | 80 | 1006.5 |
| 20260904061558 | 55 | 262 | 15.0 | 26.0 | 0.00 | 0.04 | 0.04 | 79 | 1006.7 |
| 20260904061039 | 55 | 261 | 11.0 | 21.0 | 0.00 | 0.04 | 0.04 | 80 | 1006.7 |
| 20260904060540 | 55 | 256 | 10.0 | 24.0 | 0.00 | 0.04 | 0.04 | 80 | 1006.6 |
| 20260904060100 | 55 | 239 | 14.0 | 24.0 | 0.00 | 0.04 | 0.04 | 79 | 1006.7 |
| 20260904055539 | 55 | 225 | 13.0 | 21.0 | 0.00 | 0.04 | 0.04 | 79 | 1006.6 |
| 20260904055039 | 55 | 286 | 11.0 | 21.0 | 0.00 | 0.04 | 0.04 | 79 | 1006.6 |
| 20260904054554 | 55 | 324 | 10.0 | 23.0 | 0.00 | 0.04 | 0.04 | 79 | 1006.6 |
| 20260904054040 | 55 | 228 | 11.0 | 23.0 | 0.00 | 0.04 | 0.04 | 79 | 1006.6 |
| 20260904053539 | 55 | 268 | 11.0 | 24.0 | 0.00 | 0.04 | 0.04 | 79 | 1006.5 |
| 20260904053108 | 56 | 260 | 12.0 | 24.0 | 0.00 | 0.04 | 0.04 | 79 | 1006.2 |
| 20260904052540 | 56 | 259 | 12.0 | 26.0 | 0.00 | 0.04 | 0.04 | 79 | 1006.1 |
| 20260904052040 | 56 | 246 | 11.0 | 27.0 | 0.00 | 0.04 | 0.04 | 79 | 1006.1 |
| 20260904051559 | 56 | 307 | 11.0 | 27.0 | 0.00 | 0.04 | 0.04 | 79 | 1006.1 |
| 20260904051039 | 56 | 248 | 11.0 | 22.0 | 0.00 | 0.04 | 0.04 | 80 | 1006.4 |
| 20260904050539 | 56 | 262 | 10.0 | 20.0 | 0.00 | 0.04 | 0.04 | 80 | 1006.2 |
| 20260904050058 | 57 | 241 | 11.0 | 30.0 | 0.00 | 0.04 | 0.04 | 80 | 1005.9 |
| 20260904045539 | 57 | 263 | 9.0 | 30.0 | 0.00 | 0.04 | 0.04 | 79 | 1005.9 |
| 20260904045039 | 57 | 244 | 12.0 | 25.0 | 0.00 | 0.04 | 0.04 | 78 | 1005.7 |
| 20260904044604 | 57 | 296 | 11.0 | 25.0 | 0.00 | 0.04 | 0.04 | 78 | 1005.7 |
| 20260904044040 | 57 | 277 | 12.0 | 24.0 | 0.00 | 0.04 | 0.04 | 77 | 1005.6 |
| 20260904043539 | 58 | 246 | 12.0 | 26.0 | 0.00 | 0.04 | 0.04 | 76 | 1005.6 |
| 20260904043105 | 58 | 308 | 13.0 | 26.0 | 0.00 | 0.04 | 0.04 | 78 | 1005.7 |
| 20260904042541 | 58 | 299 | 17.0 | 27.0 | 0.00 | 0.04 | 0.04 | 76 | 1005.5 |
| 20260904042039 | 58 | 268 | 12.0 | 27.0 | 0.00 | 0.04 | 0.04 | 75 | 1005.3 |
| 20260904041606 | 58 | 344 | 13.0 | 26.0 | 0.00 | 0.04 | 0.04 | 74 | 1005.2 |
| 20260904041039 | 58 | 243 | 14.0 | 27.0 | 0.00 | 0.04 | 0.04 | 74 | 1005.4 |
| 20260904040542 | 58 | 289 | 15.0 | 27.0 | 0.00 | 0.04 | 0.04 | 74 | 1005.4 |
| 20260904040100 | 58 | 307 | 12.0 | 28.0 | 0.00 | 0.04 | 0.04 | 74 | 1005.5 |
| 20260904035541 | 59 | 248 | 13.0 | 29.0 | 0.00 | 0.04 | 0.04 | 75 | 1005.6 |
| 20260904035040 | 59 | 229 | 18.0 | 29.0 | 0.00 | 0.04 | 0.04 | 74 | 1005.6 |
| 20260904034553 | 59 | 259 | 17.0 | 27.0 | 0.00 | 0.04 | 0.04 | 74 | 1005.6 |
| 20260904034039 | 59 | 304 | 13.0 | 24.0 | 0.00 | 0.04 | 0.04 | 76 | 1005.2 |
| 20260904033538 | 59 | 250 | 12.0 | 30.0 | 0.00 | 0.04 | 0.04 | 78 | 1005.3 |
| 20260904033104 | 59 | 265 | 14.0 | 30.0 | 0.00 | 0.04 | 0.04 | 79 | 1005.1 |
| 20260904032538 | 59 | 296 | 18.0 | 28.0 | 0.00 | 0.04 | 0.04 | 76 | 1005.0 |
| 20260904032038 | 59 | 297 | 13.0 | 30.0 | 0.00 | 0.04 | 0.04 | 78 | 1005.0 |
| 20260904031606 | 59 | 254 | 15.0 | 30.0 | 0.00 | 0.04 | 0.04 | 77 | 1004.9 |
| 20260904031038 | 59 | 253 | 15.0 | 30.0 | 0.00 | 0.04 | 0.04 | 76 | 1004.9 |
| 20260904030539 | 59 | 254 | 18.0 | 31.0 | 0.00 | 0.04 | 0.04 | 77 | 1004.8 |
| 20260904030056 | 59 | 254 | 17.0 | 31.0 | 0.00 | 0.04 | 0.04 | 76 | 1004.8 |
| 20260904025539 | 59 | 240 | 15.0 | 30.0 | 0.00 | 0.04 | 0.04 | 76 | 1004.7 |
| 20260904025039 | 60 | 235 | 14.0 | 33.0 | 0.00 | 0.04 | 0.04 | 76 | 1004.6 |
| 20260904024549 | 60 | 250 | 16.0 | 33.0 | 0.00 | 0.04 | 0.04 | 75 | 1004.3 |
| 20260904024039 | 60 | 278 | 17.0 | 35.0 | 0.00 | 0.04 | 0.04 | 76 | 1004.0 |
| 20260904023538 | 60 | 302 | 16.0 | 35.0 | 0.00 | 0.04 | 0.04 | 78 | 1003.7 |
| 20260904023102 | 60 | 271 | 18.0 | 37.0 | 0.00 | 0.04 | 0.04 | 78 | 1003.2 |
| 20260904022542 | 60 | 290 | 20.0 | 37.0 | 0.00 | 0.04 | 0.04 | 78 | 1003.2 |
| 20260904022039 | 60 | 247 | 21.0 | 37.0 | 0.00 | 0.04 | 0.04 | 80 | 1003.0 |
| 20260904021557 | 60 | 248 | 20.0 | 36.0 | 0.00 | 0.04 | 0.04 | 79 | 1002.9 |
| 20260904021038 | 60 | 249 | 21.0 | 34.0 | 0.00 | 0.04 | 0.04 | 80 | 1002.8 |
| 20260904020539 | 61 | 275 | 17.0 | 33.0 | 0.00 | 0.04 | 0.04 | 81 | 1003.0 |
| 20260904020056 | 60 | 277 | 22.0 | 35.0 | 0.00 | 0.04 | 0.04 | 82 | 1003.3 |
| 20260904015539 | 61 | 248 | 20.0 | 37.0 | 0.00 | 0.04 | 0.04 | 82 | 1003.0 |
| 20260904015039 | 61 | 293 | 18.0 | 37.0 | 0.00 | 0.04 | 0.04 | 81 | 1003.3 |
| 20260904014554 | 61 | 264 | 19.0 | 37.0 | 0.00 | 0.04 | 0.04 | 81 | 1003.3 |
| 20260904014039 | 61 | 251 | 16.0 | 36.0 | 0.00 | 0.04 | 0.04 | 83 | 1003.5 |
| 20260904013539 | 61 | 312 | 17.0 | 36.0 | 0.00 | 0.04 | 0.04 | 84 | 1003.5 |
| 20260904013047 | 61 | 281 | 18.0 | 33.0 | 0.00 | 0.04 | 0.04 | 82 | 1003.5 |
| 20260904012539 | 62 | 244 | 14.0 | 29.0 | 0.00 | 0.04 | 0.04 | 83 | 1003.5 |
| 20260904012041 | 62 | 265 | 16.0 | 39.0 | 0.00 | 0.04 | 0.04 | 84 | 1003.6 |
| 20260904011559 | 62 | 280 | 19.0 | 39.0 | 0.00 | 0.04 | 0.04 | 83 | 1003.4 |
| 20260904011039 | 62 | 292 | 20.0 | 37.0 | 0.00 | 0.04 | 0.04 | 83 | 1003.5 |
| 20260904010539 | 62 | 255 | 17.0 | 39.0 | 0.00 | 0.04 | 0.04 | 83 | 1003.5 |
| 20260904010057 | 62 | 229 | 14.0 | 39.0 | 0.00 | 0.04 | 0.04 | 85 | 1003.9 |
| 20260904005541 | 62 | 273 | 13.0 | 29.0 | 0.00 | 0.04 | 0.04 | 83 | 1004.2 |
| 20260904005039 | 62 | 274 | 15.0 | 37.0 | 0.00 | 0.04 | 0.04 | 86 | 1004.3 |
| 20260904004553 | 62 | 257 | 16.0 | 38.0 | 0.00 | 0.04 | 0.04 | 85 | 1004.4 |
| 20260904004039 | 61 | 246 | 18.0 | 38.0 | 0.00 | 0.04 | 0.04 | 84 | 1004.3 |
| 20260904003540 | 61 | 260 | 15.0 | 28.0 | 0.00 | 0.04 | 0.04 | 86 | 1004.1 |
| 20260904003100 | 60 | 244 | 16.0 | 37.0 | 0.00 | 0.04 | 0.04 | 88 | 1003.8 |
| 20260904002538 | 59 | 300 | 15.0 | 37.0 | 0.00 | 0.04 | 0.04 | 88 | 1003.6 |
| 20260904002041 | 60 | 279 | 20.0 | 44.0 | 0.00 | 0.04 | 0.04 | 88 | 1003.1 |
| 20260904001559 | 59 | 261 | 25.0 | 44.0 | 0.00 | 0.04 | 0.04 | 88 | 1003.2 |
| 20260904001040 | 61 | 287 | 26.0 | 44.0 | 0.00 | 0.04 | 0.04 | 84 | 1003.5 |
| 20260904000542 | 61 | 300 | 23.0 | 40.0 | 0.00 | 0.04 | 0.04 | 83 | 1003.2 |
| 20260904000056 | 61 | 275 | 22.0 | 43.0 | 0.00 | 0.04 | 0.04 | 84 | 1003.4 |
| 20260903235543 | 61 | 257 | 23.0 | 43.0 | 0.00 | 0.04 | 0.04 | 84 | 1003.2 |
| 20260903235039 | 61 | 264 | 20.0 | 41.0 | 0.00 | 0.04 | 0.04 | 85 | 1003.2 |
| 20260903234553 | 61 | 259 | 20.0 | 40.0 | 0.00 | 0.04 | 0.04 | 86 | 1003.3 |
| 20260903234039 | 61 | 284 | 20.0 | 42.0 | 0.00 | 0.04 | 0.04 | 86 | 1003.3 |
| 20260903233539 | 61 | 288 | 17.0 | 42.0 | 0.01 | 0.04 | 0.04 | 86 | 1003.3 |
| 20260903233241 | 61 | 322 | 20.0 | 40.0 | 0.01 | 0.04 | 0.04 | 86 | 1003.1 |
| 20260903232536 | 61 | 293 | 19.0 | 40.0 | 0.01 | 0.04 | 0.04 | 88 | 1003.4 |
| 20260903232036 | 60 | 283 | 20.0 | 42.0 | 0.01 | 0.04 | 0.04 | 89 | 1003.2 |
| 20260903231607 | 60 | 296 | 17.0 | 42.0 | 0.02 | 0.04 | 0.04 | 89 | 1003.7 |
| 20260903231040 | 60 | 296 | 22.0 | 42.0 | 0.03 | 0.04 | 0.04 | 90 | 1003.7 |
| 20260903230540 | 59 | 292 | 23.0 | 38.0 | 0.03 | 0.04 | 0.04 | 92 | 1003.6 |
| 20260903225540 | 58 | 273 | 20.0 | 35.0 | 0.03 | 0.03 | 0.03 | 92 | 1004.1 |
| 20260903225042 | 58 | 267 | 14.0 | 28.0 | 0.03 | 0.03 | 0.03 | 93 | 1004.1 |
| 20260903224602 | 57 | 316 | 14.0 | 28.0 | 0.03 | 0.03 | 0.03 | 93 | 1003.8 |
| 20260903224042 | 58 | 269 | 14.0 | 28.0 | 0.03 | 0.03 | 0.03 | 93 | 1004.0 |
| 20260903223539 | 58 | 241 | 15.0 | 26.0 | 0.02 | 0.03 | 0.03 | 92 | 1004.0 |
| 20260903223059 | 58 | 273 | 16.0 | 29.0 | 0.02 | 0.03 | 0.03 | 91 | 1004.0 |
| 20260903222539 | 58 | 285 | 14.0 | 29.0 | 0.02 | 0.03 | 0.03 | 91 | 1003.9 |
| 20260903222040 | 59 | 249 | 14.0 | 25.0 | 0.02 | 0.03 | 0.03 | 90 | 1003.6 |
| 20260903221557 | 59 | 264 | 15.0 | 25.0 | 0.01 | 0.02 | 0.02 | 89 | 1003.7 |
| 20260903221039 | 59 | 276 | 13.0 | 26.0 | 0.00 | 0.01 | 0.01 | 88 | 1004.0 |
| 20260903220542 | 59 | 273 | 16.0 | 26.0 | 0.00 | 0.01 | 0.01 | 88 | 1004.0 |
| 20260903220055 | 60 | 267 | 14.0 | 26.0 | 0.00 | 0.00 | 0.00 | 87 | 1003.9 |
| 20260903215540 | 59 | 277 | 9.0 | 24.0 | 0.00 | 0.00 | 0.00 | 87 | 1004.2 |
| 20260903215039 | 60 | 260 | 10.0 | 19.0 | 0.00 | 0.00 | 0.00 | 86 | 1004.1 |
| 20260903214602 | 60 | 294 | 11.0 | 19.0 | 0.00 | 0.00 | 0.00 | 87 | 1004.4 |
| 20260903214042 | 59 | 273 | 10.0 | 18.0 | 0.00 | 0.00 | 0.00 | 87 | 1004.4 |
| 20260903213538 | 59 | 289 | 10.0 | 21.0 | 0.00 | 0.00 | 0.00 | 86 | 1004.4 |
| 20260903213049 | 59 | 257 | 11.0 | 21.0 | 0.00 | 0.00 | 0.00 | 85 | 1004.4 |
| 20260903212539 | 60 | 320 | 10.0 | 21.0 | 0.00 | 0.00 | 0.00 | 84 | 1004.4 |
| 20260903212039 | 59 | 277 | 11.0 | 19.0 | 0.00 | 0.00 | 0.00 | 84 | 1004.2 |
| 20260903211557 | 59 | 277 | 12.0 | 19.0 | 0.00 | 0.00 | 0.00 | 84 | 1004.2 |
| 20260903211042 | 59 | 261 | 10.0 | 20.0 | 0.00 | 0.00 | 0.00 | 85 | 1004.2 |
| 20260903210540 | 59 | 244 | 11.0 | 20.0 | 0.00 | 0.00 | 0.00 | 85 | 1004.1 |
| 20260903210056 | 59 | 273 | 12.0 | 20.0 | 0.00 | 0.00 | 0.00 | 84 | 1004.4 |
| 20260903205540 | 59 | 265 | 10.0 | 20.0 | 0.00 | 0.00 | 0.00 | 84 | 1004.7 |
| 20260903205044 | 58 | 267 | 8.0 | 14.0 | 0.00 | 0.00 | 0.00 | 85 | 1004.8 |
| 20260903204556 | 58 | 281 | 6.0 | 14.0 | 0.00 | 0.00 | 0.00 | 86 | 1004.9 |
| 20260903204039 | 57 | 284 | 5.0 | 14.0 | 0.00 | 0.00 | 0.00 | 86 | 1004.9 |
| 20260903203538 | 57 | 255 | 3.0 | 10.0 | 0.00 | 0.00 | 0.00 | 86 | 1005.1 |
| 20260903203100 | 57 | 269 | 4.0 | 10.0 | 0.00 | 0.00 | 0.00 | 86 | 1005.2 |
| 20260903202540 | 57 | 243 | 3.0 | 9.0 | 0.00 | 0.00 | 0.00 | 86 | 1005.5 |
| 20260903202043 | 58 | 258 | 3.0 | 12.0 | 0.00 | 0.00 | 0.00 | 86 | 1005.6 |
| 20260903201556 | 58 | 236 | 5.0 | 12.0 | 0.00 | 0.00 | 0.00 | 86 | 1005.8 |
| 20260903201039 | 58 | 263 | 6.0 | 12.0 | 0.00 | 0.00 | 0.00 | 86 | 1005.9 |
| 20260903200542 | 57 | 248 | 5.0 | 11.0 | 0.00 | 0.00 | 0.00 | 86 | 1006.2 |
| 20260903200051 | 57 | 263 | 5.0 | 11.0 | 0.00 | 0.00 | 0.00 | 87 | 1006.2 |
| 20260903195538 | 57 | 267 | 3.0 | 10.0 | 0.00 | 0.00 | 0.00 | 88 | 1006.2 |
| 20260903195039 | 57 | 98 | 3.0 | 10.0 | 0.00 | 0.00 | 0.00 | 88 | 1006.1 |
| 20260903194559 | 57 | 285 | 2.0 | 10.0 | 0.00 | 0.00 | 0.00 | 88 | 1006.2 |
| 20260903194041 | 57 | 243 | 3.0 | 9.0 | 0.00 | 0.00 | 0.00 | 88 | 1006.4 |
| 20260903193538 | 57 | 267 | 4.0 | 9.0 | 0.00 | 0.00 | 0.00 | 89 | 1006.4 |
| 20260903193057 | 57 | 40 | 1.0 | 8.0 | 0.00 | 0.00 | 0.00 | 89 | 1006.5 |
| 20260903192539 | 57 | 264 | 4.0 | 12.0 | 0.00 | 0.00 | 0.00 | 89 | 1006.6 |
| 20260903192039 | 57 | 49 | 5.0 | 12.0 | 0.00 | 0.00 | 0.00 | 89 | 1006.7 |
| 20260903191549 | 57 | 360 | 5.0 | 12.0 | 0.00 | 0.00 | 0.00 | 89 | 1006.7 |
| 20260903191039 | 57 | 301 | 6.0 | 12.0 | 0.00 | 0.00 | 0.00 | 90 | 1006.9 |
| 20260903190541 | 57 | 289 | 6.0 | 12.0 | 0.00 | 0.00 | 0.00 | 90 | 1007.0 |
| 20260903190058 | 57 | 281 | 8.0 | 12.0 | 0.00 | 0.00 | 0.00 | 90 | 1006.9 |
| 20260903185540 | 57 | 324 | 6.0 | 12.0 | 0.00 | 0.00 | 0.00 | 90 | 1007.0 |
| 20260903185038 | 57 | 284 | 7.0 | 13.0 | 0.00 | 0.00 | 0.00 | 90 | 1007.0 |
| 20260903184558 | 57 | 270 | 5.0 | 13.0 | 0.00 | 0.00 | 0.00 | 90 | 1007.0 |
| 20260903184040 | 57 | 284 | 5.0 | 11.0 | 0.00 | 0.00 | 0.00 | 90 | 1007.0 |
| 20260903183540 | 57 | 281 | 5.0 | 14.0 | 0.00 | 0.00 | 0.00 | 90 | 1007.1 |
| 20260903183055 | 57 | 276 | 8.0 | 16.0 | 0.00 | 0.00 | 0.00 | 90 | 1007.1 |
| 20260903182539 | 57 | 289 | 9.0 | 16.0 | 0.00 | 0.00 | 0.00 | 90 | 1007.2 |
| 20260903182038 | 57 | 300 | 10.0 | 16.0 | 0.00 | 0.00 | 0.00 | 91 | 1007.2 |
| 20260903181601 | 57 | 260 | 10.0 | 16.0 | 0.00 | 0.00 | 0.00 | 91 | 1007.2 |
| 20260903181039 | 57 | 275 | 9.0 | 15.0 | 0.00 | 0.00 | 0.00 | 91 | 1007.3 |
| 20260903180539 | 57 | 319 | 9.0 | 15.0 | 0.00 | 0.00 | 0.00 | 91 | 1007.1 |
| 20260903180115 | 57 | 278 | 9.0 | 15.0 | 0.00 | 0.00 | 0.00 | 91 | 1007.2 |
| 20260903175541 | 57 | 293 | 9.0 | 17.0 | 0.00 | 0.00 | 0.00 | 91 | 1007.4 |
| 20260903175041 | 57 | 273 | 10.0 | 17.0 | 0.00 | 0.00 | 0.00 | 91 | 1007.5 |
| 20260903174558 | 57 | 273 | 8.0 | 15.0 | 0.00 | 0.00 | 0.00 | 92 | 1007.6 |
| 20260903174041 | 57 | 286 | 7.0 | 14.0 | 0.00 | 0.00 | 0.00 | 92 | 1007.5 |
| 20260903173540 | 56 | 257 | 4.0 | 14.0 | 0.00 | 0.00 | 0.00 | 92 | 1007.6 |
| 20260903173057 | 57 | 312 | 6.0 | 13.0 | 0.00 | 0.00 | 0.00 | 92 | 1007.6 |
| 20260903172539 | 56 | 279 | 7.0 | 13.0 | 0.00 | 0.00 | 0.00 | 93 | 1007.7 |
| 20260903172039 | 56 | 271 | 7.0 | 15.0 | 0.00 | 0.00 | 0.00 | 93 | 1007.9 |
| 20260903171554 | 56 | 273 | 7.0 | 15.0 | 0.00 | 0.00 | 0.00 | 93 | 1007.8 |
| 20260903171040 | 56 | 321 | 7.0 | 15.0 | 0.00 | 0.00 | 0.00 | 93 | 1008.0 |
| 20260903170539 | 56 | 259 | 6.0 | 14.0 | 0.00 | 0.00 | 0.00 | 93 | 1008.0 |
| 20260903170047 | 57 | 270 | 6.0 | 14.0 | 0.00 | 0.00 | 0.00 | 93 | 1008.0 |
| 20260903165542 | 57 | 268 | 6.0 | 15.0 | 0.00 | 0.00 | 0.00 | 93 | 1008.1 |
| 20260903165044 | 57 | 259 | 6.0 | 16.0 | 0.00 | 0.00 | 0.00 | 93 | 1008.1 |
| 20260903164605 | 57 | 263 | 7.0 | 16.0 | 0.00 | 0.00 | 0.00 | 93 | 1008.2 |
| 20260903164040 | 57 | 270 | 8.0 | 14.0 | 0.00 | 0.00 | 0.00 | 93 | 1008.1 |
| 20260903163540 | 57 | 269 | 8.0 | 16.0 | 0.00 | 0.00 | 0.00 | 93 | 1008.2 |
| 20260903163055 | 57 | 288 | 9.0 | 16.0 | 0.00 | 0.00 | 0.00 | 93 | 1008.2 |
| 20260903162543 | 57 | 294 | 10.0 | 16.0 | 0.00 | 0.00 | 0.00 | 93 | 1008.1 |
| 20260903162035 | 57 | 323 | 9.0 | 15.0 | 0.00 | 0.00 | 0.00 | 93 | 1008.3 |
| 20260903161551 | 57 | 272 | 8.0 | 15.0 | 0.00 | 0.00 | 0.00 | 92 | 1008.3 |
| 20260903161035 | 57 | 291 | 8.0 | 18.0 | 0.00 | 0.00 | 0.00 | 92 | 1008.3 |
| 20260903160539 | 57 | 277 | 11.0 | 18.0 | 0.00 | 0.00 | 0.00 | 92 | 1008.2 |
| 20260903160107 | 57 | 286 | 11.0 | 17.0 | 0.00 | 0.00 | 0.00 | 92 | 1008.2 |
| 20260903155543 | 57 | 277 | 9.0 | 16.0 | 0.00 | 0.00 | 0.00 | 92 | 1008.2 |
| 20260903155036 | 57 | 321 | 9.0 | 17.0 | 0.00 | 0.00 | 0.00 | 91 | 1008.4 |
| 20260903154558 | 57 | 274 | 10.0 | 22.0 | 0.00 | 0.00 | 0.00 | 91 | 1008.5 |
| 20260903154036 | 57 | 246 | 12.0 | 22.0 | 0.00 | 0.00 | 0.00 | 91 | 1008.6 |
| 20260903153537 | 57 | 264 | 14.0 | 22.0 | 0.00 | 0.00 | 0.00 | 91 | 1008.6 |
| 20260903153054 | 57 | 283 | 10.0 | 18.0 | 0.00 | 0.00 | 0.00 | 91 | 1008.7 |
| 20260903152536 | 58 | 252 | 9.0 | 19.0 | 0.00 | 0.00 | 0.00 | 91 | 1008.8 |
| 20260903152037 | 58 | 299 | 12.0 | 19.0 | 0.00 | 0.00 | 0.00 | 90 | 1008.7 |
| 20260903151553 | 58 | 279 | 11.0 | 20.0 | 0.00 | 0.00 | 0.00 | 90 | 1008.8 |
| 20260903151036 | 58 | 300 | 14.0 | 20.0 | 0.00 | 0.00 | 0.00 | 89 | 1008.7 |
| 20260903150536 | 58 | 274 | 11.0 | 16.0 | 0.00 | 0.00 | 0.00 | 89 | 1008.8 |
| 20260903150053 | 58 | 292 | 10.0 | 16.0 | 0.00 | 0.00 | 0.00 | 89 | 1008.9 |
| 20260903145535 | 58 | 325 | 9.0 | 17.0 | 0.00 | 0.00 | 0.00 | 89 | 1009.0 |
| 20260903145038 | 58 | 274 | 9.0 | 17.0 | 0.00 | 0.00 | 0.00 | 89 | 1009.0 |
| 20260903144558 | 57 | 263 | 9.0 | 17.0 | 0.00 | 0.00 | 0.00 | 89 | 1009.0 |
| 20260903144039 | 57 | 296 | 8.0 | 14.0 | 0.00 | 0.00 | 0.00 | 89 | 1009.3 |
| 20260903143539 | 57 | 327 | 9.0 | 14.0 | 0.00 | 0.00 | 0.00 | 89 | 1009.4 |
| 20260903143056 | 57 | 28 | 6.0 | 12.0 | 0.00 | 0.00 | 0.00 | 89 | 1009.4 |
| 20260903142535 | 57 | 297 | 7.0 | 12.0 | 0.00 | 0.00 | 0.00 | 89 | 1009.5 |
| 20260903142036 | 56 | 268 | 5.0 | 9.0 | 0.00 | 0.00 | 0.00 | 90 | 1009.5 |
| 20260903141554 | 56 | 256 | 2.0 | 7.0 | 0.00 | 0.00 | 0.00 | 90 | 1009.6 |
| 20260903141037 | 56 | 287 | 0.0 | 6.0 | 0.00 | 0.00 | 0.00 | 90 | 1009.7 |
| 20260903140541 | 57 | 272 | 3.0 | 7.0 | 0.00 | 0.00 | 0.00 | 90 | 1009.8 |
| 20260903140051 | 57 | 266 | 3.0 | 14.0 | 0.00 | 0.00 | 0.00 | 90 | 1009.8 |
| 20260903135535 | 57 | 289 | 4.0 | 14.0 | 0.00 | 0.00 | 0.00 | 90 | 1010.0 |
| 20260903135036 | 57 | 68 | 4.0 | 9.0 | 0.00 | 0.00 | 0.00 | 90 | 1010.0 |
| 20260903134546 | 57 | 263 | 3.0 | 7.0 | 0.00 | 0.00 | 0.00 | 90 | 1010.1 |
| 20260903134036 | 57 | 272 | 3.0 | 9.0 | 0.00 | 0.00 | 0.00 | 90 | 1010.2 |
| 20260903133535 | 57 | 282 | 3.0 | 9.0 | 0.00 | 0.00 | 0.00 | 90 | 1010.2 |
| 20260903133057 | 57 | 276 | 4.0 | 10.0 | 0.00 | 0.00 | 0.00 | 90 | 1010.2 |
| 20260903132537 | 57 | 270 | 4.0 | 12.0 | 0.00 | 0.00 | 0.00 | 90 | 1010.3 |
| 20260903132035 | 57 | 273 | 6.0 | 14.0 | 0.00 | 0.00 | 0.00 | 90 | 1010.4 |
| 20260903131554 | 57 | 289 | 9.0 | 14.0 | 0.00 | 0.00 | 0.00 | 91 | 1010.4 |
| 20260903131039 | 57 | 329 | 7.0 | 14.0 | 0.00 | 0.00 | 0.00 | 91 | 1010.4 |
| 20260903130541 | 57 | 256 | 5.0 | 11.0 | 0.00 | 0.00 | 0.00 | 91 | 1010.3 |
| 20260903130131 | 57 | 271 | 7.0 | 12.0 | 0.00 | 0.00 | 0.00 | 91 | 1010.3 |
| 20260903125539 | 58 | 263 | 6.0 | 15.0 | 0.00 | 0.00 | 0.00 | 91 | 1010.3 |
| 20260903125039 | 58 | 319 | 8.0 | 15.0 | 0.00 | 0.00 | 0.00 | 91 | 1010.4 |
| 20260903124555 | 58 | 292 | 8.0 | 14.0 | 0.00 | 0.00 | 0.00 | 91 | 1010.5 |
| 20260903124038 | 58 | 290 | 6.0 | 12.0 | 0.00 | 0.00 | 0.00 | 91 | 1010.6 |
| 20260903123538 | 58 | 287 | 7.0 | 13.0 | 0.00 | 0.00 | 0.00 | 91 | 1010.8 |
| 20260903123102 | 58 | 265 | 7.0 | 17.0 | 0.00 | 0.00 | 0.00 | 91 | 1010.8 |
| 20260903122540 | 58 | 267 | 9.0 | 17.0 | 0.00 | 0.00 | 0.00 | 91 | 1010.9 |
| 20260903122041 | 58 | 294 | 7.0 | 13.0 | 0.00 | 0.00 | 0.00 | 91 | 1010.8 |
| 20260903121550 | 57 | 265 | 6.0 | 14.0 | 0.00 | 0.00 | 0.00 | 91 | 1010.8 |
| 20260903121040 | 57 | 301 | 6.0 | 14.0 | 0.00 | 0.00 | 0.00 | 92 | 1010.9 |
| 20260903120540 | 57 | 288 | 8.0 | 13.0 | 0.00 | 0.00 | 0.00 | 92 | 1011.0 |
| 20260903120104 | 57 | 278 | 6.0 | 12.0 | 0.00 | 0.00 | 0.00 | 92 | 1011.0 |
| 20260903115540 | 57 | 263 | 7.0 | 12.0 | 0.00 | 0.00 | 0.00 | 92 | 1011.0 |
| 20260903115038 | 57 | 298 | 7.0 | 15.0 | 0.00 | 0.00 | 0.00 | 92 | 1011.1 |
| 20260903114600 | 57 | 277 | 8.0 | 18.0 | 0.00 | 0.00 | 0.00 | 92 | 1011.1 |
| 20260903114044 | 57 | 272 | 11.0 | 18.0 | 0.00 | 0.00 | 0.00 | 92 | 1011.3 |
| 20260903113542 | 57 | 298 | 10.0 | 17.0 | 0.00 | 0.00 | 0.00 | 92 | 1011.3 |
| 20260903113053 | 57 | 276 | 11.0 | 17.0 | 0.00 | 0.00 | 0.00 | 92 | 1011.4 |
| 20260903112540 | 57 | 302 | 9.0 | 16.0 | 0.00 | 0.00 | 0.00 | 92 | 1011.5 |
| 20260903112039 | 57 | 290 | 9.0 | 15.0 | 0.00 | 0.00 | 0.00 | 92 | 1011.4 |
| 20260903111558 | 56 | 308 | 5.0 | 8.0 | 0.00 | 0.00 | 0.00 | 92 | 1011.5 |
| 20260903111042 | 56 | 275 | 3.0 | 7.0 | 0.00 | 0.00 | 0.00 | 91 | 1011.6 |
| 20260903110539 | 56 | 250 | 2.0 | 7.0 | 0.00 | 0.00 | 0.00 | 91 | 1011.7 |
| 20260903110120 | 56 | 269 | 3.0 | 7.0 | 0.00 | 0.00 | 0.00 | 91 | 1011.8 |
| 20260903105539 | 56 | 294 | 1.0 | 7.0 | 0.00 | 0.00 | 0.00 | 91 | 1011.7 |
| 20260903105039 | 56 | 320 | 4.0 | 7.0 | 0.00 | 0.00 | 0.00 | 91 | 1012.0 |
| 20260903104556 | 56 | 277 | 2.0 | 6.0 | 0.00 | 0.00 | 0.00 | 91 | 1011.9 |
| 20260903104038 | 56 | 246 | 1.0 | 7.0 | 0.00 | 0.00 | 0.00 | 90 | 1012.0 |
| 20260903103542 | 56 | 277 | 1.0 | 7.0 | 0.00 | 0.00 | 0.00 | 90 | 1011.9 |
| 20260903103052 | 56 | 277 | 2.0 | 6.0 | 0.00 | 0.00 | 0.00 | 90 | 1012.0 |
| 20260903102539 | 56 | 273 | 1.0 | 6.0 | 0.00 | 0.00 | 0.00 | 90 | 1012.0 |
| 20260903102041 | 55 | 255 | 3.0 | 7.0 | 0.00 | 0.00 | 0.00 | 90 | 1012.1 |
| 20260903101608 | 55 | 273 | 2.0 | 7.0 | 0.00 | 0.00 | 0.00 | 90 | 1012.1 |
| 20260903101039 | 55 | 302 | 3.0 | 4.0 | 0.00 | 0.00 | 0.00 | 90 | 1012.1 |
| 20260903100539 | 55 | 336 | 2.0 | 4.0 | 0.00 | 0.00 | 0.00 | 90 | 1012.2 |
| 20260903100059 | 55 | 271 | 1.0 | 4.0 | 0.00 | 0.00 | 0.00 | 90 | 1012.2 |
| 20260903095538 | 55 | 255 | 1.0 | 4.0 | 0.00 | 0.00 | 0.00 | 90 | 1012.3 |
| 20260903095038 | 55 | 259 | 2.0 | 4.0 | 0.00 | 0.00 | 0.00 | 90 | 1012.4 |
| 20260903094600 | 55 | 329 | 2.0 | 4.0 | 0.00 | 0.00 | 0.00 | 90 | 1012.4 |
| 20260903094039 | 55 | 271 | 1.0 | 4.0 | 0.00 | 0.00 | 0.00 | 90 | 1012.5 |
| 20260903093539 | 55 | 269 | 3.0 | 4.0 | 0.00 | 0.00 | 0.00 | 90 | 1012.4 |
| 20260903093051 | 55 | 261 | 2.0 | 4.0 | 0.00 | 0.00 | 0.00 | 90 | 1012.4 |
| 20260903092539 | 54 | 265 | 1.0 | 3.0 | 0.00 | 0.00 | 0.00 | 90 | 1012.4 |
| 20260903092039 | 54 | 264 | 2.0 | 4.0 | 0.00 | 0.00 | 0.00 | 90 | 1012.4 |
| 20260903091600 | 54 | 261 | 1.0 | 4.0 | 0.00 | 0.00 | 0.00 | 90 | 1012.4 |
| 20260903091039 | 54 | 265 | 1.0 | 2.0 | 0.00 | 0.00 | 0.00 | 91 | 1012.4 |
| 20260903090539 | 54 | 266 | 1.0 | 2.0 | 0.00 | 0.00 | 0.00 | 91 | 1012.5 |
| 20260903090059 | 54 | 267 | 0.0 | 2.0 | 0.00 | 0.00 | 0.00 | 90 | 1012.5 |
| 20260903085538 | 54 | 267 | 0.0 | 3.0 | 0.00 | 0.00 | 0.00 | 90 | 1012.5 |
| 20260903085038 | 54 | 265 | 0.0 | 4.0 | 0.00 | 0.00 | 0.00 | 90 | 1012.6 |
| 20260903084555 | 54 | 265 | 2.0 | 4.0 | 0.00 | 0.00 | 0.00 | 90 | 1012.5 |
| 20260903084040 | 54 | 260 | 1.0 | 3.0 | 0.00 | 0.00 | 0.00 | 90 | 1012.5 |
| 20260903083539 | 55 | 270 | 1.0 | 3.0 | 0.00 | 0.00 | 0.00 | 90 | 1012.4 |
| 20260903083059 | 55 | 265 | 0.0 | 3.0 | 0.00 | 0.00 | 0.00 | 89 | 1012.6 |
| 20260903082538 | 56 | 0 | 0.0 | 3.0 | 0.00 | 0.00 | 0.00 | 89 | 1012.6 |
| 20260903082040 | 56 | 273 | 1.0 | 3.0 | 0.00 | 0.00 | 0.00 | 89 | 1012.5 |
| 20260903081550 | 56 | 270 | 0.0 | 7.0 | 0.00 | 0.00 | 0.00 | 89 | 1012.6 |
| 20260903081038 | 57 | 0 | 1.0 | 7.0 | 0.00 | 0.00 | 0.00 | 90 | 1012.8 |
| 20260903080539 | 57 | 281 | 4.0 | 9.0 | 0.00 | 0.00 | 0.00 | 90 | 1012.7 |
| 20260903080104 | 57 | 298 | 5.0 | 9.0 | 0.00 | 0.00 | 0.00 | 90 | 1012.7 |
| 20260903075538 | 57 | 259 | 3.0 | 7.0 | 0.00 | 0.00 | 0.00 | 90 | 1012.7 |
| 20260903075038 | 57 | 253 | 3.0 | 7.0 | 0.00 | 0.00 | 0.00 | 89 | 1012.6 |
| 20260903074608 | 57 | 230 | 1.0 | 8.0 | 0.00 | 0.00 | 0.00 | 89 | 1012.7 |